Weather in Kopanovo

Russia / Ryazan Oblast     54°35′42″N   41°03′25″E
temp.,
°C
wind,
m/s
gust,
m/s
humid.,
%
clouds,
%
prec.,
mm/h
press.,
hPa
HPBL,
m
25 february, thu
thu2500:00−17s5994100 0.4 1032402
03:00−15ssw61095100 0.7 1029407
06:00−13ssw61095100 1.3 1025412
09:00−11ssw71295100 2.9 1021428
12:00−5ssw71395100 2.3 1016480
15:00+1wsw511100100 3.4 1013332
18:00+2wnw411100100 0.1 1013295
21:00+1wnw41099100 0.2 1014334
26 february, fri
fri2600:00+1wnw4898100 0.0 1013250
03:00+1wsw3699100 0.0 1014188
06:00+1wsw49100100 0.2 1011254
09:00+1wsw511100100 0.8 1011297
12:00+2wsw512100100 0.6 1008322
15:00+2wsw615100100 1.5 1006374
18:00+2w717100100 0.8 1003505
21:00+2w6159597 0.9 1004623
27 february, sat
sat2700:00+2w6148999 0.1 1002783
03:00+1w7149096 0.1 1002719
06:000w61391100 0.0 1001690
09:000w7129298 0.0 1001682
12:000wnw612100100 0.1 1000705
15:00+1wnw71310099 0.3 1002758
18:00−5nnw51189100 0.9 1004645
21:00−9nnw499399 0.9 1007297
28 february, sun
sun2800:00−10nnw379597 0.0 1009168
03:00−11nnw379590 0.0 1011156
06:00−12nnw379545 0.0 1013161
09:00−11nnw489225 0.0 1014371
12:00−8nnw478979 0.0 1016538
15:00−6nnw578890 0.1 1017672
18:00−7nnw4993100 0.1 1018429
21:00−9nnw3794100 0.1 1021142
1 march, mon
mon100:00−10n339688 0.0 102258
03:00−12nnw349667 0.0 102452
06:00−12nnw239650 0.0 102531
09:00−10nnw249658 0.0 1027170
12:00−5nw249084 0.0 1027468
15:00−3wnw358592 0.1 1026703
18:00−3wsw4790100 0.0 1026271
21:00−6wsw41093100 0.0 1024219